Regional Weather Roundup
Issued by NWS

Home | Current Version | Previous Version | Graphics & Text | Print | Product List | Glossary Off
Versions: 1 2 3 4 5 6 7 8 9 10 11 12 13 14 15 16 17 18 19 20 21 22 23 24 25 26 27 28 29 30 31 32 33 34 35 36 37 38 39 40 41 42 43 44 45 46 47 48 49 50

000
ASUS43 KDMX 080206
RWRIA

WEATHER ROUNDUP FOR IOWA
NATIONAL WEATHER SERVICE DES MOINES IA
800 PM CST WED DEC 07 2016

NOTE: "FAIR" INDICATES FEW OR NO CLOUDS BELOW 12,000 FEET WITH NO
SIGNIFICANT WEATHER AND/OR OBSTRUCTIONS TO VISIBILITY.

* - THESE STATIONS ARE NOT NWS STATIONS...THUS NOT UNDER NWS
QUALITY CONTROL.  THEY ALSO DO NOT REPORT WEATHER SUCH
AS PRECIPITATION OR FOG.

IAZ001>003-012>014-020>022-031>034-043>046-080300-
   NORTHWEST IOWA

CITY           SKY/WX    TMP DP  RH WIND       PRES   REMARKS
CARROLL *      CLEAR     16   9  73 W15       30.32R WCI   1
CHEROKEE *     CLEAR     15   7  70 NW14G24   30.32R WCI   0
DENISON *      MOCLDY    16   9  73 NW15G23   30.33R WCI   1
LE MARS *      MOCLDY    16   7  67 NW17      30.36R WCI   0
ORANGE CITY *  CLEAR     14   7  73 NW23      30.29S WCI  -5
SHELDON *      CLOUDY    14   7  73 NW24G33   30.27S WCI  -5
SIOUX CITY     CLOUDY    18   6  59 NW18G24   30.38R WCI   2
SPENCER        MOCLDY    14   6  70 W31G39    30.27R WCI  -7
STORM LAKE *   PTCLDY    14   7  73 NW26      30.27S WCI  -6
$$

IAZ055>058-069>071-079>083-090>094-080300-
   SOUTHWEST IOWA

CITY           SKY/WX    TMP DP  RH WIND       PRES   REMARKS
ATLANTIC *     CLEAR     18   9  68 NW14G21   30.37R WCI   4
AUDUBON *      CLEAR     18   9  68 NW10G20   30.33R WCI   6
CLARINDA *     CLEAR     19  10  68 W7        30.41R WCI  10
COUNCIL BLFS * CLEAR     19   7  58 NW13G24   30.39R WCI   7
CRESTON *      CLEAR     18   9  68 W15       30.34R WCI   3
HARLAN  *      PTCLDY    18   9  68 NW14      30.40R WCI   4
LAMONI         CLEAR     18  10  71 W9        30.34R WCI   7
RED OAK *      CLEAR     19  10  68 W7        30.40R WCI  10
SHENANDOAH *   CLEAR     21  10  63 W12       30.42R WCI   9
$$

IAZ047>049-059>061-072>074-084-080300-
   CENTRAL IOWA

CITY           SKY/WX    TMP DP  RH WIND       PRES   REMARKS
AMES           CLEAR     19  10  68 W20G25    30.29R WCI   3
ANKENY *       CLEAR     19   9  63 W17G25    30.33R WCI   4
BOONE *        CLEAR     18   9  68 W21G26    30.27R WCI   1
CHARITON *     CLEAR     19  10  68 W10       30.32R WCI   8
DES MOINES     PTCLDY    21   8  57 NW22      30.32R WCI   5
GRINNELL*      CLEAR     20  12  70 W17       30.27R WCI   5
KNOXVILLE *    CLEAR     19   9  63 W13       30.30R WCI   7
MARSHALLTOWN   CLEAR     19  12  74 W14       30.26R WCI   6
NEWTON *       CLEAR     19  10  68 W18G25    30.28S WCI   4
PELLA *        CLEAR     21  10  61 NW14G23   30.31R WCI   8
PERRY *          N/A     19  11  73 W20       30.32R WCI   2
$$

IAZ004>006-015-016-023>025-035-036-080300-
   NORTH CENTRAL IOWA

CITY           SKY/WX    TMP DP  RH WIND       PRES   REMARKS
ALGONA *       FLURRIES  18  10  73 NW24G30   30.23S WCI   0
CLARION *      CLOUDY    18   9  68 W23       30.24S WCI   0
ESTHERVILLE    MOCLDY    13   6  74 NW26G35   30.24R WCI  -7
FORT DODGE *   CLEAR     18   7  62 W10G24    30.27R WCI   6
MASON CITY     CLOUDY    18   9  68 W18G28    30.21R WCI   2
FOREST CITY *  CLOUDY    18   9  68 NW22G32   30.20R WCI   0
WEBSTER CITY * CLEAR     18   9  68 W23G32    30.25R WCI   0
IOWA FALLS *     N/A     19  12  73 W24G30    30.25R WCI   2
$$

IAZ007>011-017>019-026>030-037>042-050>054-066-080300-
   NORTHEAST IOWA

CITY           SKY/WX    TMP DP  RH WIND       PRES   REMARKS
CEDAR RAPIDS   CLOUDY    20  15  81 W16       30.23R WCI   6
CHARLES CITY * CLOUDY    19  10  68 W24G32    30.18S WCI   2
CLINTON *      FLURRIES  23  16  74 W22       30.20R WCI   8
DECORAH *      CLOUDY    19  12  73 W13G20    30.13R WCI   7
DUBUQUE        CLOUDY    21  13  71 W20       30.16S WCI   6
MONTICELLO *   CLOUDY    23  14  68 W17       30.19S WCI   9
OELWEIN *      CLOUDY    21  14  73 W21G33    30.18S WCI   6
WATERLOO       CLEAR     20  10  65 W15G26    30.22R WCI   6
$$

IAZ064-065-067-068-078-080300-
   EAST CENTRAL IOWA

CITY           SKY/WX    TMP DP  RH WIND       PRES   REMARKS
DAVENPORT      CLOUDY    23  14  68 W28G35    30.22S WCI   6
IOWA CITY      CLOUDY    22  13  68 W14G24    30.27S WCI   9
MUSCATINE *    MOCLDY    23  14  68 W12       30.28R WCI  12
QUAD CITIES    CLOUDY    25  14  63 W20G28    30.23R WCI  11
$$

IAZ062-063-075>077-085>089-095>099-080300-
   SOUTHEAST IOWA

CITY           SKY/WX    TMP DP  RH WIND       PRES   REMARKS
BURLINGTON     PTCLDY    23  13  65 W13       30.28R WCI  11
FAIRFIELD *    PTCLDY    21  10  63 W12       30.29R WCI   9
FORT MADISON * PTCLDY    23  12  63 W14       30.30R WCI  11
KEOKUK *       CLEAR     25  12  58 NW12G23   30.30R WCI  14
OSKALOOSA *      N/A     19  13  76 W10       30.30R WCI   7
CENTERVILLE *    N/A     19  12  73 W12       30.33R WCI   7
OTTUMWA        CLEAR     20  10  65 W8        30.30R WCI  10
WASHINGTON *   CLEAR     21  14  73 W13       30.29R WCI   9
$$

ABBREVIATIONS USED IN REMARKS
   TC - TEMPERATURES IN CELSIUS
  WCI - WIND CHILL INDEX
   HX - HEAT INDEX
  VSB - VISIBILITY
$$




USA.gov is the U.S. government's official web portal to all federal, state and local government web resources and services.